[[{"header":{"parameterUnit":"m.s-1","parameterCategory":1,"la1":30.2991,"la2":30.254,"lo1":-89.0895,"lo2":-89.0444,"dy":0.0017,"dx":0.0017,"nx":28,"ny":28,"refTime":"2025-11-10T09:00:00:Z","depth":0,"parameterNumber":2,"parameterNumberName":"U-component_of_WINDS"},"data":[0,0,0,0,0,0,0,0,0,0,0,0,0,0,0,0,0,0,0,0,0,0,0,0,0,0,0,0,0,0,0,0,0,0,0,0,0,0,0,0,0,0,0,0,0,0,0,0,0,0,0,0,0,0,0,0,0,0,4.1555,4.1556,0,4.1646,4.1647,4.1648,4.1605,4.1602,4.16,4.1598,4.1689,4.1693,4.1697,0,0,0,0,0,0,0,0,0,0,0,0,0,4.1338,4.1343,4.1555,4.1556,4.1557,4.1646,4.1647,4.1648,4.1605,4.1602,4.1599,4.1597,4.1687,4.1692,4.1698,0,0,0,0,0,0,0,0,0,0,0,0,0,4.1431,4.1344,4.1555,4.1546,4.1547,4.1646,4.1647,4.1649,4.1606,4.1602,4.1599,4.1595,4.1685,4.1692,4.1699,4.181,0,0,4.172,4.1723,0,0,0,0,0,0,0,0,4.1426,4.1439,4.1547,4.1547,4.1548,4.161,4.1604,4.1703,4.1607,4.1583,4.1598,4.1594,4.1665,4.1673,4.1698,4.1815,4.1819,4.172,4.1724,4.1727,4.1729,0,0,0,0,0,0,0,4.142,4.1435,4.1591,4.1548,4.1549,4.1536,4.1546,4.1622,4.1642,4.1585,4.1582,4.1593,4.1665,4.1692,4.17,4.182,4.172,4.1726,4.173,4.1733,4.2025,4.2029,0,0,0,0,0,0,4.1414,4.143,4.1588,4.1594,4.1477,4.1543,4.1553,4.1594,4.1642,4.1646,4.1596,4.1591,4.1682,4.1692,4.1703,4.1831,4.1727,4.1734,4.1738,4.2022,4.2026,4.203,0,0,0,0,0,0,4.141,4.1429,4.1584,4.1511,4.153,4.155,4.1596,4.1597,4.1624,4.165,4.1653,4.162,4.1679,4.1693,4.1782,4.1834,4.1737,4.1743,4.2017,4.2023,4.2028,4.2092,0,0,0,0,0,0,4.1404,4.1427,4.1472,4.1512,4.1534,4.1664,4.1599,4.1602,4.1636,4.163,4.1673,4.1677,4.1678,4.1772,4.1789,4.1842,4.1748,4.2013,4.202,4.2026,4.2086,4.2099,4.2111,0,0,0,0,0,4.1396,4.1487,4.1474,4.1493,4.159,4.1668,4.168,4.1679,4.1641,4.1684,4.17,4.1676,4.1827,4.1782,4.1801,4.1856,4.2009,4.2018,4.2026,4.208,4.2097,4.2111,0,0,0,0,0,0,4.1452,4.1492,4.1478,4.1586,4.1623,4.166,4.1715,4.1698,4.1747,4.1739,4.1735,4.1745,4.1836,4.1856,4.1805,4.1963,4.1912,4.1924,4.1946,4.1963,4.1975,4.1966,4.1754,0,0,0,0,0,4.1477,4.1538,4.157,4.1661,4.1681,4.1695,4.1729,4.1724,4.1763,4.1778,4.1801,4.1838,4.1893,4.193,4.1983,4.2089,4.2095,4.2136,4.2149,4.2159,4.2168,4.222,4.2237,4.2057,4.2057,4.2057,0,0,4.1529,4.1558,4.1597,4.1673,4.1702,4.1762,4.1708,4.1776,4.1819,4.1789,4.1872,4.1891,4.1932,4.2028,4.2072,4.2047,4.222,4.217,4.2178,4.2181,4.223,4.2247,4.2262,4.2063,4.2062,4.2061,0,0,4.1653,4.1684,4.176,4.179,4.1833,4.1841,4.186,4.1898,4.1908,4.1993,4.1969,4.2021,4.2118,4.2146,4.2173,4.2303,4.2281,4.2321,4.2386,4.2436,4.245,4.2462,4.2503,4.2519,4.2331,4.2331,4.2331,0,4.1711,4.1803,4.1802,4.187,4.1901,4.1876,4.195,4.1979,4.2038,4.2059,4.2031,4.2147,4.2174,4.2274,4.2305,4.233,4.2347,4.2314,4.2449,4.2461,4.2472,4.2511,4.2527,4.2335,4.2335,4.2335,4.2334,0,4.1869,4.1933,4.1989,4.2044,4.2083,4.2154,4.2161,4.22,4.2192,4.2202,4.2285,4.2316,4.2371,4.2396,4.239,4.2494,4.2476,4.2449,4.2396,4.2494,4.2529,4.2545,4.2341,4.234,4.2339,4.2338,0,0,4.2031,4.2083,4.2103,4.2125,4.217,4.2217,4.2286,4.234,4.237,4.2412,4.2465,4.2546,4.2519,4.255,4.2547,4.2592,4.2685,4.2558,4.2558,4.2575,4.2794,4.2811,4.2828,4.2672,4.2675,4.2678,4.2789,0,4.2153,4.2273,4.2272,4.2381,4.2436,4.2412,4.247,4.2503,4.2514,4.256,4.2572,4.2627,4.2591,4.2608,4.2652,4.2665,4.2728,4.2657,4.2718,4.272,4.2703,4.2848,4.2867,4.2971,4.2804,4.2806,4.2808,0,4.2312,4.2356,4.247,4.2502,4.2525,4.2578,4.2624,4.2671,4.2705,4.271,4.2742,4.2731,4.2796,4.2745,4.2833,4.2785,4.281,4.282,4.2823,4.2825,4.2767,4.2849,4.3004,4.3018,4.2831,4.2829,4.2828,0,4.2411,4.2499,4.2577,4.2598,4.2639,4.2675,4.2693,4.2725,4.2755,4.2796,4.2815,4.2864,4.2889,4.2925,4.2926,4.2889,4.3012,4.2963,4.3014,4.3014,4.3038,4.3035,4.3194,4.3063,4.3062,4.3062,4.3062,0,4.2544,4.2614,4.2621,4.2668,4.2744,4.2742,4.2816,4.2831,4.2858,4.2906,4.2889,4.2934,4.2935,4.298,4.2981,4.305,4.3063,4.3065,4.3064,4.3064,4.3063,4.3077,4.3068,4.3066,4.3065,4.3065,4.3064,0,4.2666,4.2674,4.2756,4.2787,4.2796,4.285,4.2875,4.2919,4.2927,4.2987,4.3002,4.3015,4.3066,4.3071,4.3132,4.3132,4.3214,4.3208,4.3202,4.3199,4.3248,4.3241,4.3417,4.3438,4.3298,4.3299,4.33,0,4.2748,4.2801,4.2836,4.2866,4.2886,4.2937,4.2967,4.2966,4.2998,4.3039,4.3076,4.3126,4.3166,4.3249,4.3262,4.3307,4.3299,4.3357,4.3305,4.3302,4.3292,4.3287,4.329,4.3366,4.3367,4.3369,4.337,0,4.2891,4.2892,4.2937,4.2982,4.3018,4.3054,4.3087,4.3113,4.3116,4.3152,4.3204,4.3235,4.3295,4.3343,4.3386,4.3403,4.3385,4.3386,4.3399,4.3398,4.339,4.3389,4.3223,4.3381,4.338,4.3379,4.3379,4.3378,4.2992,4.3035,4.3065,4.3114,4.3138,4.3169,4.3209,4.3222,4.3266,4.3314,4.3311,4.3367,4.3396,4.3452,4.3472,4.3514,4.3494,4.3515,4.3519,4.3523,4.3525,4.3387,4.3523,4.3523,4.3522,4.3522,4.3522,0,4.3129,4.3146,4.3192,4.3237,4.3275,4.3256,4.3291,4.3323,4.3372,4.3401,4.3439,4.3496,4.3542,4.3559,4.3602,4.3632,4.3625,4.3643,4.3639,4.3641,4.3544,4.3525,4.3648,4.3648,4.3648,4.3648,4.3648,4.3648,4.3204,4.3274,4.3277,4.3357,4.3374,4.3429,4.3449,4.3476,4.3498,4.3562,4.36,4.361,4.3633,4.3677,4.3717,4.372,4.3735,4.3755,4.3755,4.3662,4.3649,4.3637,4.3619,4.376,4.376,4.3849,4.3849,4.385]},{"header":{"parameterUnit":"m.s-1","parameterCategory":1,"la1":30.2991,"la2":30.254,"lo1":-89.0895,"lo2":-89.0444,"dy":0.0017,"dx":0.0017,"nx":28,"ny":28,"refTime":"2025-11-10T09:00:00:Z","depth":0,"parameterNumber":3,"parameterNumberName":"V-component_of_WINDS"},"data":[0,0,0,0,0,0,0,0,0,0,0,0,0,0,0,0,0,0,0,0,0,0,0,0,0,0,0,0,0,0,0,0,0,0,0,0,0,0,0,0,0,0,0,0,0,0,0,0,0,0,0,0,0,0,0,0,0,0,4.1969,4.1969,0,4.2008,4.2008,4.2009,4.1927,4.1924,4.1922,4.1919,4.196,4.1963,4.1967,0,0,0,0,0,0,0,0,0,0,0,0,0,4.1822,4.1825,4.1969,4.1969,4.197,4.2008,4.2008,4.2009,4.1928,4.1924,4.1921,4.1918,4.1959,4.1963,4.1967,0,0,0,0,0,0,0,0,0,0,0,0,0,4.1876,4.1826,4.1969,4.1934,4.1931,4.2008,4.2008,4.2009,4.1928,4.1924,4.192,4.1917,4.1957,4.1962,4.1968,4.208,0,0,4.1984,4.1986,0,0,0,0,0,0,0,0,4.1873,4.1881,4.1939,4.1936,4.1933,4.1959,4.1971,4.2033,4.1929,4.1929,4.1919,4.1915,4.1963,4.1967,4.1983,4.2082,4.2084,4.1985,4.1988,4.199,4.1992,0,0,0,0,0,0,0,4.1869,4.1879,4.1984,4.1939,4.1936,4.1915,4.1919,4.1983,4.1968,4.1929,4.1923,4.1929,4.1961,4.1979,4.1984,4.2085,4.1984,4.1989,4.1992,4.1994,4.2273,4.2277,0,0,0,0,0,0,4.187,4.1877,4.1983,4.1986,4.1893,4.1921,4.1925,4.1955,4.1967,4.1965,4.1932,4.1925,4.1971,4.1978,4.1985,4.2114,4.199,4.1995,4.1998,4.2269,4.2274,4.2278,0,0,0,0,0,0,4.1867,4.188,4.1982,4.1929,4.1941,4.1928,4.1962,4.1957,4.1975,4.1969,4.1966,4.1953,4.1968,4.1977,4.2056,4.2114,4.1997,4.2002,4.2264,4.227,4.2276,4.2375,0,0,0,0,0,0,4.1863,4.188,4.1923,4.1931,4.1944,4.2053,4.1966,4.1961,4.1985,4.1975,4.1988,4.1987,4.1966,4.2049,4.2061,4.2119,4.2006,4.2258,4.2267,4.2274,4.2367,4.2384,4.2399,0,0,0,0,0,4.1858,4.1951,4.1926,4.1939,4.1998,4.2057,4.2064,4.2038,4.199,4.2032,4.2028,4.1986,4.2106,4.2057,4.2071,4.2132,4.2255,4.2264,4.2273,4.2359,4.2381,4.2399,0,0,0,0,0,0,4.1952,4.1951,4.1924,4.2022,4.204,4.2043,4.2096,4.2062,4.2095,4.2085,4.2051,4.2055,4.2139,4.2144,4.2089,4.2239,4.2172,4.2185,4.2233,4.2253,4.2269,4.2265,4.2011,0,0,0,0,0,4.1983,4.2031,4.2029,4.2115,4.2125,4.211,4.2134,4.2112,4.213,4.2137,4.2139,4.2157,4.2198,4.2226,4.2264,4.2367,4.2367,4.2416,4.2432,4.2445,4.2456,4.2506,4.2527,4.2309,4.2309,4.2309,0,0,4.205,4.2056,4.2088,4.2134,4.2145,4.2194,4.2117,4.2173,4.2208,4.2146,4.2219,4.2221,4.2239,4.2329,4.2369,4.2335,4.2516,4.2457,4.2468,4.2471,4.2518,4.2539,4.2557,4.2316,4.2315,4.2314,0,0,4.2195,4.2206,4.2277,4.2289,4.2306,4.2295,4.2312,4.232,4.2318,4.2391,4.2343,4.2385,4.2458,4.2471,4.2488,4.2635,4.2596,4.2648,4.2732,4.2782,4.2799,4.2814,4.2862,4.2881,4.2659,4.266,4.266,0,4.2276,4.2348,4.2318,4.2376,4.2396,4.234,4.241,4.2424,4.2454,4.2468,4.243,4.2518,4.2527,4.2617,4.2652,4.2669,4.2685,4.2646,4.2799,4.2814,4.2827,4.2873,4.2892,4.2665,4.2665,4.2664,4.2664,0,4.2443,4.2494,4.2549,4.2577,4.2603,4.2668,4.2646,4.2676,4.2652,4.2643,4.2716,4.2725,4.2761,4.2782,4.2759,4.2868,4.2846,4.2805,4.2736,4.2854,4.2896,4.2914,4.2674,4.2672,4.267,4.2669,0,0,4.2649,4.2657,4.2677,4.2687,4.2701,4.2739,4.28,4.2834,4.2859,4.2882,4.2929,4.2991,4.2951,4.297,4.2948,4.2992,4.3103,4.2944,4.2944,4.297,4.3219,4.3248,4.3269,4.3078,4.3081,4.3084,4.3216,0,4.279,4.2893,4.2866,4.2968,4.3012,4.2959,4.3011,4.3024,4.3018,4.3054,4.3046,4.3089,4.3035,4.3045,4.3087,4.3081,4.3152,4.3071,4.312,4.3122,4.3114,4.3292,4.3324,4.3448,4.3233,4.3236,4.3238,0,4.2968,4.2994,4.31,4.3102,4.3119,4.3167,4.3194,4.323,4.3243,4.3235,4.3255,4.3223,4.3281,4.3214,4.3291,4.3237,4.3255,4.3255,4.3259,4.3261,4.3185,4.3295,4.3487,4.3505,4.3264,4.3262,4.326,0,4.3102,4.3164,4.3234,4.3245,4.3251,4.3284,4.3289,4.3298,4.3319,4.3343,4.3356,4.3388,4.3405,4.3429,4.3406,4.336,4.3486,4.3418,4.3479,4.3479,4.3506,4.3504,4.3701,4.3523,4.3523,4.3523,4.3522,0,4.326,4.3326,4.3294,4.3337,4.3408,4.3376,4.3448,4.3446,4.3454,4.3494,4.3451,4.349,4.3459,4.3494,4.3477,4.3542,4.3551,4.3544,4.3538,4.3546,4.3547,4.3556,4.3546,4.3528,4.3527,4.3526,4.3525,0,4.3422,4.3403,4.3475,4.3474,4.3475,4.3527,4.3525,4.3564,4.3554,4.3605,4.3615,4.3599,4.3638,4.3618,4.366,4.3648,4.3731,4.3715,4.3726,4.372,4.3781,4.3774,4.3988,4.4013,4.3823,4.3825,4.3826,0,4.3522,4.3571,4.3574,4.3597,4.3604,4.3643,4.3663,4.3634,4.3657,4.3673,4.3709,4.3745,4.3771,4.3837,4.3828,4.3859,4.3841,4.3914,4.3846,4.3851,4.3838,4.3834,4.3837,4.3927,4.3929,4.3931,4.3933,0,4.3702,4.3689,4.372,4.3747,4.3772,4.3793,4.381,4.3831,4.3801,4.383,4.3868,4.3889,4.393,4.3964,4.399,4.3994,4.3958,4.3955,4.3969,4.3977,4.398,4.3975,4.376,4.3949,4.3948,4.3946,4.3946,4.3945,4.3833,4.3872,4.3879,4.3914,4.3923,4.3939,4.3974,4.3967,4.3998,4.4028,4.4009,4.4054,4.4063,4.4094,4.4101,4.4135,4.4106,4.4129,4.4134,4.414,4.4146,4.3977,4.4141,4.414,4.414,4.4139,4.4139,0,4.4007,4.4008,4.404,4.4063,4.409,4.4054,4.4069,4.4094,4.4134,4.4145,4.4171,4.4214,4.4247,4.424,4.4269,4.4298,4.4282,4.4306,4.4302,4.4303,4.4172,4.4155,4.4318,4.4318,4.4318,4.4318,4.4318,4.4318,4.41,4.4163,4.4151,4.4217,4.4217,4.426,4.4271,4.4285,4.4293,4.4343,4.4369,4.4364,4.4367,4.4396,4.4424,4.4421,4.4432,4.4462,4.4453,4.433,4.4313,4.4296,4.4278,4.4465,4.4466,4.458,4.4581,4.4582]}]]